sat.trackr.live / text

‹ back to catalog

STARLINK-34822

NORAD 65086 · 2025-167J

PAYLOAD ACTIVE UNKNOWN

§ Identity

Operator
Country
US
Launch date
2025-08-04
Launch site
AFETR
Launch vehicle
Mass (kg)
RCS (m²)

Purposes: comms

External: N2YO · Heavens-Above · Gunter

§ Orbital elements

Epoch: 2026-09-20T07:37:49.782720Z

Period
93.85 min
Inclination
53.1586°
Eccentricity
0.0000795
Mean motion
15.34417940 rev/d
Perigee alt
462.1 km
Apogee alt
463.2 km
Semi-major
6,840.8 km
B*
6.1296e-4
RAAN
202.2544°
Arg perigee
72.7592°
Mean anomaly
287.3497°
Rev number
6,328

§ Raw data

STARLINK-348221 65086U 25167J   26263.31793730  .00020402  00000+0  61296-3 0  99922 65086  53.1586 202.2544 0000795  72.7592 287.3497 15.34417940 63284

JSON: /api/v1/satellites/65086 · /tle

For live sub-satellite position, see the globe view (requires WebGL).

§ Visibility from observer

Set your observer location to see the next 7 days of passes ≥ 10°. The values pass through the URL so the page stays shareable.

No JS? Fill the form by hand. The geolocation button needs JavaScript.